Regional Weather Roundup
Issued by NWS

Home | Current Version | Previous Version | Text Only | Print | Product List | Glossary Off
Versions: 1 2 3 4 5 6 7 8 9 10 11 12 13 14 15 16 17 18 19 20 21 22 23 24 25 26 27

000
ASUS45 KBOU 200307
RWRCO

WEATHER ROUNDUP FOR COLORADO
NATIONAL WEATHER SERVICE DENVER/BOULDER CO
900 PM MDT THU OCT 19 2017

NOTE: "FAIR" INDICATES FEW OR NO CLOUDS BELOW 12000 FEET WITH NO
SIGNIFICANT WEATHER AND/OR OBSTRUCTIONS TO VISIBILITY.

COZ001>005-013-030-031-200400-
...NORTHWEST COLORADO...

CITY           SKY/WX    TMP DP  RH WIND       PRES   REMARKS
CRAIG          FAIR      51  31  46 SW7       29.98S
HAYDEN         MOCLDY    58  31  35 CALM      30.01F
MEEKER         CLOUDY    55  34  45 NE3       30.00S
RABBIT EARS PA FAIR      41  28  60 W7        30.22S
STEAMBOAT SPGS CLOUDY    57  29  34 E5        30.02S
WALDEN         NOT AVBL
$$

COZ006>008-011-200400-
...WEST CENTRAL VALLEYS...

CITY           SKY/WX    TMP DP  RH WIND       PRES   REMARKS
GRAND JUNCTION MOCLDY    62  26  25 S8        29.91F
MONTROSE       FAIR      55  31  39 VRB3      30.02S
EAGLE          FAIR      50  29  44 E8        30.05R
RIFLE          FAIR      60  30  32 VRB3      29.98R
DELTA          FAIR      59  25  27 NE6       29.97S
NUCLA          MOCLDY    59  30  33 SE3       30.05R
$$

COZ017>023-064>068-200400-
...SOUTHWEST COLORADO...

CITY           SKY/WX    TMP DP  RH WIND       PRES   REMARKS
DURANGO        FAIR      55  31  39 NW3       30.08S
CORTEZ         FAIR      50  30  46 NE6       30.04R
PAGOSA SPRINGS CLOUDY    53  25  33 CALM      30.14S
TELLURIDE      CLOUDY    51  27  39 CALM      30.20F
WOLF CREEK PAS FAIR      36  23  60 S13G20    30.38F
$$

COZ009-010-012-014-032>034-037-058>063-200400-
...CENTRAL COLORADO...

CITY           SKY/WX    TMP DP  RH WIND       PRES   REMARKS
ASPEN          FAIR      48  26  42 S8        30.09S
BUENA VISTA    FAIR      43  23  45 W6        30.09S
COPPER MTN     FAIR      41  21  45 W8        30.33S
BERTHOUD PASS  FAIR      34  27  75 NW5       30.34S WCI  30
COTTONWOOD PAS FAIR      55  19  24 SW9       30.19F
GUNNISON       FAIR      50  26  39 CALM      30.10R
KREMMLING      MOCLDY    54  23  30 CALM      30.07S
LEADVILLE      FAIR      38  19  46 N3        30.19S
SALIDA         FAIR      56  14  19 SW9       30.14S
SUNLIGHT       FAIR      39  27  60 SW9G22    30.28S
WILKERSON PASS FAIR      43  12  28 SW9       30.30S
$$

COZ069>075-200400-
...SAN LUIS VALLEY/SANGRE DE CRISTO MOUNTAINS...

CITY           SKY/WX    TMP DP  RH WIND       PRES   REMARKS
ALAMOSA        FAIR      47  27  45 SW9       30.07S
DEL NORTE      FAIR      48  24  38 W8        30.12S
LA VETA PASS   FAIR      46  21  36 S21G32    30.33F
SAGUACHE       FAIR      45  18  33 NW9       30.10F
$$

COZ035-036-038>040-200400-
...NORTHERN COLORADO FRONT RANGE...

CITY           SKY/WX    TMP DP  RH WIND       PRES   REMARKS
DENVER INTL AP FAIR      52  29  41 S13       29.91S
DMNS CITY PARK   N/A     52  36  54 E8        29.91S
AURORA         MOCLDY    56  26  31 S13       29.92F
FRONT RANGE AP MOCLDY   N/A N/A N/A S8        29.93S
ERIE MUNI ARPT FAIR      47  35  62 S3        29.95S
BOULDER MUN AP FAIR      55  32  41 W3        29.90F
CENTENNIAL     FAIR      58  27  30 S10       29.94F
BROOMFIELD     MOCLDY    57  28  33 W5        29.92
FORT COLLINS   FAIR      55  40  56 NW3       29.89F
LONGMONT       FAIR      51  36  57 W3        29.91F
$$

COZ041-046-047-076>085-087-088-200400-
...PIKES PEAK/PALMER DIVIDE AND SOUTHERN FOOTHILLS...

CITY           SKY/WX    TMP DP  RH WIND       PRES   REMARKS
COLO. SPRINGS  MOCLDY    52  32  46 NE5       30.00F
A. F. ACADEMY  FAIR      52  26  35 S3        30.01F
SCHRIEVER AFB  FAIR      54  33  45 CALM      30.00F
CHEYENNE MTN   MOCLDY    61  27  27 S7        29.98F
ELLICOTT       FAIR     N/A N/A N/A E12       29.97F
FALCON         FAIR      49  30  48 SW3       30.04F
FORT CARSON    FAIR      62  29  29 W5        29.96F
LIMON          FAIR      43  35  73 CALM      29.96F
MONUMENT HILL  FAIR      52  32  46 S15       30.03S
CANON CITY     FAIR      55  30  38 W6        29.94F
WALSENBURG     FAIR      52  34  50 SW8       29.98S
TRINIDAD       FAIR      55  29  36 SW7       29.98S
$$

COZ042>045-048>051-090-091-200400-
...NORTHEAST COLORADO...

CITY           SKY/WX    TMP DP  RH WIND       PRES   REMARKS
GREELEY ARPT   FAIR      46  36  68 NW5       29.88F
AKRON          FAIR      58  38  47 S13       29.91S
BURLINGTON     FAIR      60  46  59 S15       29.93S
WRAY           NOT AVBL
YUMA           NOT AVBL
STERLING       NOT AVBL
HOLYOKE        FAIR      61  45  55 S9        29.89S
FORT MORGAN    FAIR      55  32  41 S6        29.91S
$$

COZ086-089-092>099-200400-
...SOUTHEAST COLORADO...

CITY           SKY/WX    TMP DP  RH WIND       PRES   REMARKS
PUEBLO         FAIR      60  37  42 N9        29.88F
LA JUNTA       FAIR      64  40  41 S8        29.89S
LAMAR          FAIR      66  46  48 S12       29.88F
SPRINGFIELD      N/A     59  48  67 S15       29.97S
$$




USA.gov is the U.S. government's official web portal to all federal, state and local government web resources and services.